Temp_Advection
nan nan nan nan nan nan nan nan nan nan nan nan nan nan nan nan nan nan nan nan nan nan nan nan nan nan nan nan nan nan nan nan nan nan nan nan nan nan nan nan nan nan nan
nan -0 0 0 0 0 0 0 0 -0 0 0 0 0 0 0 0 0 0 0 -0 -0 -0 -0 -0 -0 -0 -0 0 -0 -0 0 0 0 -0 -0 -0 -0 0 -0 0 0 nan
nan 1 1 1 1 0 0 0 0 0 0 0 0 0 0 0 0 0 0 0 0 0 -0 -0 -0 -0 -0 -0 -0 -0 -0 -0 0 -0 -0 -0 0 0 0 0 0 0 nan
nan 1 2 0 0 0 0 -0 0 0 0 0 0 0 0 0 0 0 0 0 0 0 0 0 0 0 -0 -0 -0 -0 -0 -0 0 -0 -0 -0 -0 -0 -0 0 0 0 nan
nan 0 -0 -0 -0 -0 0 0 0 0 0 0 -0 -0 0 0 0 0 0 0 0 0 0 0 0 0 0 0 -0 0 0 -0 -0 -0 -0 -0 0 -0 -1 -0 -0 0 nan
nan 0 -2 -0 -0 0 0 0 0 0 0 0 -0 -0 0 0 0 0 0 0 0 0 0 0 0 0 0 0 0 0 0 0 -0 0 0 -0 -0 0 -0 -0 -0 -0 nan
nan -0 -1 0 0 1 0 0 0 0 0 -0 -0 0 0 0 0 0 0 0 0 0 0 0 0 0 0 0 0 0 -0 -0 -0 0 -0 0 0 0 -0 -0 -0 -0 nan
nan -1 -0 1 1 1 0 0 0 0 0 0 0 0 0 0 0 0 0 0 0 0 0 0 0 0 0 0 0 0 0 0 -0 -0 -0 0 0 -0 -0 -0 -0 -0 nan
nan -1 0 0 0 0 0 0 0 0 0 0 0 0 0 0 0 0 0 0 0 0 0 0 0 0 0 0 0 0 0 0 -0 0 -0 0 0 0 -0 -0 -0 -0 nan
nan -0 -0 0 0 0 1 0 0 0 0 0 0 0 0 0 1 1 0 0 0 0 0 0 0 0 0 0 0 0 0 0 0 0 0 -1 -0 0 0 0 -0 -0 nan
nan -0 -0 0 0 1 1 0 0 0 0 0 0 0 1 1 1 1 0 -0 0 0 0 0 0 0 0 0 0 0 0 0 0 0 0 -0 0 0 0 0 0 0 nan
nan 0 0 0 0 1 0 0 0 1 1 1 1 1 2 0 0 0 -0 -0 0 0 0 0 0 0 0 1 1 0 0 -0 0 0 0 -0 0 0 0 0 0 0 nan
nan 0 1 1 1 1 1 -0 1 0 1 1 1 0 -0 -1 0 -0 -0 0 1 0 0 0 0 1 1 1 0 1 0 0 0 0 0 0 0 0 0 0 0 0 nan
nan 0 0 1 0 0 1 1 0 0 0 0 -2 -2 -1 0 1 -0 0 1 1 0 0 0 1 1 1 0 -0 -0 -0 1 0 0 0 1 0 0 0 0 0 0 nan
nan 1 0 0 0 0 0 0 0 0 0 -1 -1 0 0 1 1 1 1 1 0 0 0 1 1 -0 -0 -0 -0 0 1 0 0 0 0 1 1 1 0 0 0 0 nan
nan 1 1 0 -0 -0 -0 1 2 2 1 1 -0 -2 1 1 1 0 1 -0 0 0 -0 0 -0 -0 1 0 0 1 0 0 0 0 0 0 1 1 1 0 0 0 nan
nan 0 0 1 1 1 0 1 1 0 0 0 -1 -1 -0 -0 1 1 -0 -0 1 -1 -1 0 -0 1 1 0 1 1 1 0 0 0 0 -0 0 0 1 0 0 0 nan
nan -0 0 0 0 -0 -0 0 1 0 0 0 0 -1 -2 2 2 -0 -1 0 -0 -2 -1 0 1 -0 0 0 1 1 0 0 0 0 0 0 0 -0 -0 0 0 0 nan
nan -0 0 -0 0 0 -0 -0 0 0 0 0 1 0 -2 -1 1 2 1 -0 -0 -0 1 0 0 2 1 0 0 0 1 0 0 0 0 1 -0 -0 -0 0 1 1 nan
nan 0 -0 -0 0 -0 -0 -0 -0 -0 0 0 0 0 -0 -1 1 2 1 0 -1 0 1 0 1 2 1 0 0 1 1 1 0 0 0 0 0 0 0 0 1 0 nan
nan -1 -1 -0 -0 -0 -0 0 -0 -0 -0 -0 -0 1 1 1 1 1 -0 0 -0 -0 0 1 1 2 2 0 0 -0 1 1 0 0 0 0 1 1 1 0 -0 0 nan
nan -0 -1 -0 -0 -0 -0 -0 -0 -0 -0 -0 -0 -0 0 0 0 1 1 0 -0 0 0 -0 1 2 0 -1 -0 -1 -0 -1 -0 0 0 1 1 1 1 0 0 0 nan
nan -0 -0 -0 -0 0 0 0 -0 -0 -0 -0 -0 -0 -0 -0 0 0 1 0 0 -0 -1 0 1 1 0 2 -1 1 -2 -1 -1 0 0 1 1 1 1 0 1 1 nan
nan -0 -0 -0 -1 -0 -0 0 0 0 -1 -1 -0 -0 -0 -0 -0 -0 -0 0 0 0 0 -0 0 1 3 1 -1 0 -2 1 -1 -1 0 1 1 1 1 1 0 1 nan
nan -0 -0 -0 -1 -1 -0 -0 -0 0 0 -1 -1 -1 -1 -0 0 -0 -0 0 1 1 -1 -0 0 0 3 1 2 3 3 2 1 0 -1 1 1 0 0 1 0 0 nan
nan nan nan nan nan nan nan nan nan nan nan nan nan nan nan nan nan nan nan nan nan nan nan nan nan nan nan nan nan nan nan nan nan nan nan nan nan nan nan nan nan nan nan
Wind_Speed
15 23 27 28 27 26 23 22 21 20 20 21 20 18 17 14 12 12 11 11 13 13 13 11 10 10 10 11 12 12 10 8 8 9 8 8 9 9 10 11 14 9 10
16 24 29 30 29 27 25 23 21 20 20 20 19 18 17 14 13 12 12 13 14 13 13 12 11 11 11 10 10 10 8 7 6 9 8 6 8 9 10 10 8 8 7
13 25 32 32 30 28 26 23 22 19 20 20 19 18 16 15 13 13 14 14 14 13 13 12 11 11 10 9 9 8 7 5 7 7 10 6 7 12 10 8 6 7 7
12 23 33 33 31 29 26 23 21 18 18 20 19 17 16 15 14 15 15 15 14 14 13 11 11 10 10 10 9 7 5 4 5 5 8 8 8 11 10 8 7 7 7
13 21 28 32 30 28 26 24 22 20 18 18 18 17 16 16 16 16 16 15 14 13 13 11 11 11 11 9 9 7 5 4 4 8 8 9 8 7 8 9 8 8 9
14 21 27 30 28 27 26 24 22 21 19 17 16 16 17 17 16 16 16 15 14 14 12 12 12 12 11 9 8 7 6 5 6 5 5 7 8 5 6 5 6 8 10
14 17 22 27 28 27 26 24 23 22 20 19 17 17 18 18 17 17 16 15 15 14 12 12 12 12 11 10 9 8 7 5 7 6 8 8 5 5 5 4 4 6 9
12 17 22 26 27 27 26 25 23 22 21 19 19 19 18 18 17 17 16 16 14 12 11 11 11 11 11 11 10 9 7 5 5 7 8 7 2 4 5 5 4 4 5
9 16 21 26 27 26 26 24 23 22 21 20 19 19 18 18 18 18 16 15 14 11 12 12 12 12 12 12 12 11 9 8 6 7 8 6 2 3 4 3 4 3 4
6 15 19 23 26 27 27 26 24 23 21 20 19 19 19 20 19 18 17 16 15 12 13 13 14 14 13 13 13 12 10 8 7 7 7 8 1 1 3 4 4 5 5
10 13 19 22 26 28 25 28 26 24 23 22 21 21 21 22 21 20 19 20 18 15 14 14 15 15 14 14 14 13 10 6 6 6 7 5 3 3 2 2 3 3 4
15 16 19 22 26 29 25 23 28 27 26 26 25 25 24 22 22 22 22 21 20 17 16 16 16 16 15 17 18 16 9 10 7 7 9 7 5 5 4 3 3 3 3
15 19 20 23 25 27 29 24 22 23 26 26 26 25 22 26 25 26 26 24 24 21 20 19 19 18 17 15 16 17 12 11 9 8 12 9 8 6 6 5 5 4 5
14 16 19 20 23 27 28 29 22 21 22 23 31 31 31 29 27 28 26 24 22 21 21 21 20 19 18 17 17 16 16 11 9 9 12 11 10 8 7 7 6 5 5
13 15 16 18 22 24 29 30 27 23 24 24 32 35 35 33 30 31 30 23 21 20 22 22 19 21 21 20 20 19 17 14 12 10 11 13 12 10 9 9 8 8 6
11 14 15 17 19 22 26 30 30 28 25 26 26 36 37 30 28 26 30 25 21 21 20 21 22 24 22 21 21 20 20 17 15 13 12 15 13 12 11 10 10 9 8
10 10 14 16 17 19 21 22 22 22 24 25 26 34 37 39 36 34 29 31 28 26 27 23 22 21 22 22 22 23 20 19 16 16 15 14 16 14 13 12 11 9 8
13 8 6 10 13 16 22 24 23 22 24 26 27 32 36 39 34 34 32 34 35 35 36 34 30 21 22 24 21 21 20 19 19 19 17 17 20 15 15 14 12 10 9
14 11 3 3 7 9 14 17 22 26 29 27 29 30 36 40 41 42 36 35 39 38 40 37 36 36 25 22 21 22 23 20 20 19 19 21 18 17 15 18 15 12 11
18 17 12 5 6 11 14 14 16 21 26 29 33 37 40 42 42 43 42 39 40 42 41 41 42 40 33 30 25 22 21 22 21 20 22 22 22 20 18 16 16 14 15
16 17 16 14 11 8 9 12 19 25 28 28 30 35 39 41 43 43 47 43 45 48 49 46 45 42 42 36 32 23 22 21 23 23 23 23 23 23 20 19 16 16 17
15 15 14 13 11 10 6 12 17 19 20 29 37 36 37 39 39 41 47 46 52 51 52 51 51 47 39 47 45 40 22 24 25 25 24 25 25 23 23 21 20 19 17
14 13 13 12 12 12 11 9 10 14 18 22 28 34 39 40 43 45 47 51 51 58 62 59 57 56 56 50 51 35 17 23 31 29 30 29 28 26 25 24 23 21 20
10 11 10 10 11 13 13 12 13 13 16 20 21 21 30 40 42 45 49 52 57 60 63 66 64 63 62 56 60 55 33 22 25 22 32 32 29 28 26 25 24 23 22
12 10 10 9 10 13 13 13 12 13 13 15 18 24 28 30 28 35 48 54 55 62 65 62 70 71 72 66 69 65 52 32 34 23 35 39 30 29 26 26 26 25 26
11 14 15 12 10 12 13 14 14 15 15 14 15 16 17 20 25 27 27 34 54 59 65 66 61 74 78 63 61 54 59 48 38 26 19 42 47 39 29 26 26 25 24
Wind_Direction
188 185 182 179 179 172 175 172 170 178 180 177 178 177 178 178 177 179 178 175 169 166 166 172 165 153 149 139 131 125 125 115 96 104 103 109 108 97 90 86 70 82 80
194 189 187 182 184 177 179 177 177 181 184 184 185 186 188 188 187 190 187 182 177 172 172 176 170 159 160 152 145 137 132 114 108 98 78 73 95 92 100 98 102 79 82
197 192 188 184 186 180 182 181 181 188 190 193 195 196 196 197 195 194 190 186 182 176 177 179 175 164 170 168 158 150 140 117 115 77 79 98 99 99 102 100 105 80 73
196 188 188 186 187 184 184 186 187 194 199 200 202 203 204 201 196 194 191 190 188 181 182 185 184 174 181 179 172 167 148 121 111 80 89 99 108 119 116 115 126 103 81
184 180 188 189 191 189 190 190 192 195 200 202 206 206 206 201 194 193 194 195 194 189 189 192 195 186 193 188 181 178 162 136 105 94 106 111 113 130 136 122 120 138 126
174 181 196 193 195 196 195 196 197 199 204 206 209 209 204 200 196 195 198 200 202 201 197 200 204 195 201 197 190 189 176 153 101 123 115 140 128 107 122 142 126 125 139
168 181 198 197 201 202 201 204 205 206 208 212 212 211 206 203 201 200 204 207 210 211 205 206 213 207 207 208 198 203 186 168 132 129 116 126 128 97 117 131 124 131 155
179 187 199 201 206 207 207 210 212 213 215 217 215 210 207 207 206 207 210 214 218 218 214 214 219 220 211 214 208 202 193 185 150 135 133 142 140 103 122 125 137 132 144
201 203 209 207 210 212 214 219 221 222 223 222 218 212 210 210 213 213 217 220 224 222 221 224 226 225 215 211 208 202 195 191 151 149 142 148 137 105 109 113 134 148 151
226 214 221 217 215 215 217 222 227 228 229 228 223 217 214 215 216 217 219 226 225 230 230 226 227 226 220 213 214 208 203 196 165 151 152 195 208 129 126 134 137 140 152
269 237 230 227 223 218 214 220 222 228 229 228 225 222 218 217 214 215 216 229 231 235 234 226 222 224 218 213 214 212 211 193 174 168 181 207 225 202 176 145 130 123 133
267 256 245 235 229 223 213 215 219 222 223 223 224 223 219 217 218 216 221 228 233 236 233 226 222 222 215 214 214 212 204 198 184 175 201 215 225 212 184 172 156 136 123
254 252 249 244 237 230 224 216 214 213 217 219 220 216 211 223 217 217 224 225 231 230 230 225 220 214 202 199 211 211 209 208 194 182 212 216 224 220 187 176 163 144 133
247 248 251 241 241 235 227 230 215 216 217 216 223 225 222 226 223 221 225 224 224 228 223 224 220 208 206 206 209 212 216 199 197 191 206 205 208 205 185 169 161 151 138
258 254 246 249 244 244 236 233 226 222 224 224 232 230 228 226 228 229 227 220 221 225 222 221 211 213 218 218 221 220 213 203 198 192 197 196 207 194 175 170 165 158 152
271 262 252 242 244 248 252 248 243 234 228 227 235 236 233 226 228 228 228 221 221 224 224 220 216 220 217 219 220 218 216 211 205 192 198 202 196 192 185 175 172 168 164
310 271 249 243 240 239 241 249 239 241 240 234 234 244 240 236 232 230 228 231 225 223 228 225 222 216 212 217 218 220 215 212 205 198 192 200 200 193 187 182 182 180 178
351 321 257 244 239 246 258 260 255 244 245 243 238 245 248 241 234 238 235 237 232 233 236 232 231 220 216 214 211 213 213 214 210 207 192 197 206 194 197 197 200 191 187
24 28 15 273 274 282 280 277 273 264 251 247 248 244 251 252 245 243 239 240 239 237 235 233 233 230 217 211 208 209 208 207 211 208 202 192 196 193 192 204 202 193 183
41 41 37 17 302 290 297 301 291 285 279 264 254 264 262 260 256 248 244 243 239 238 232 234 232 227 216 212 202 209 215 209 206 206 206 199 198 192 193 195 194 190 183
37 39 39 32 17 341 312 298 293 290 289 285 284 282 281 277 265 252 251 240 243 240 239 241 232 226 219 209 196 197 211 214 206 207 207 204 204 197 196 194 187 193 187
34 34 30 26 21 18 344 305 299 300 290 283 284 281 280 280 281 270 262 251 240 242 240 239 234 225 218 221 207 200 190 213 213 206 206 206 205 198 198 196 192 190 187
24 26 18 10 359 348 339 336 307 295 301 292 288 282 284 282 285 278 271 259 249 245 245 244 239 234 228 224 219 208 187 219 197 203 205 206 204 197 196 194 195 193 188
20 24 16 2 354 343 337 335 323 317 308 291 286 292 282 281 282 282 278 268 252 252 248 249 244 238 232 221 223 215 222 218 188 188 204 203 202 198 197 195 195 193 192
2 359 358 3 356 348 336 331 337 339 336 327 313 295 284 278 279 276 265 262 261 249 253 254 247 237 238 224 227 214 208 211 199 195 184 195 197 202 201 201 194 196 197
350 341 337 329 317 320 327 334 339 341 340 336 330 327 319 307 292 279 276 270 255 249 254 259 259 249 241 230 224 218 207 204 200 188 200 187 187 191 199 207 200 195 198
Height
1508 1509 1511 1514 1518 1520 1524 1527 1531 1535 1537 1538 1540 1541 1543 1545 1545 1545 1546 1547 1548 1550 1552 1553 1554 1555 1555 1555 1555 1555 1556 1556 1556 1555 1556 1555 1555 1555 1554 1554 1556 1555 1553
1506 1507 1510 1513 1517 1521 1525 1527 1530 1535 1538 1539 1541 1542 1543 1545 1546 1547 1547 1549 1549 1551 1552 1553 1554 1555 1556 1556 1556 1556 1557 1557 1557 1557 1557 1557 1556 1556 1556 1556 1556 1555 1554
1506 1506 1510 1515 1518 1521 1525 1528 1530 1534 1538 1540 1541 1543 1544 1545 1546 1547 1548 1550 1550 1552 1553 1554 1554 1555 1556 1557 1558 1558 1558 1559 1558 1559 1559 1562 1558 1557 1557 1557 1556 1556 1555
1507 1509 1511 1516 1520 1523 1526 1529 1532 1534 1538 1540 1542 1543 1545 1546 1547 1548 1549 1550 1551 1552 1553 1554 1554 1556 1556 1557 1558 1559 1560 1560 1560 1560 1562 1562 1559 1558 1558 1558 1557 1557 1556
1506 1510 1513 1517 1522 1524 1527 1529 1532 1534 1537 1539 1542 1543 1545 1546 1547 1548 1550 1551 1552 1554 1554 1555 1555 1556 1556 1557 1558 1559 1560 1560 1561 1562 1562 1562 1561 1557 1557 1557 1557 1557 1556
1508 1509 1512 1518 1523 1526 1528 1530 1532 1534 1537 1539 1541 1543 1545 1546 1548 1549 1549 1550 1552 1554 1555 1556 1556 1556 1556 1557 1558 1559 1560 1560 1561 1562 1560 1560 1559 1557 1556 1557 1556 1555 1556
1511 1513 1514 1518 1523 1526 1529 1531 1532 1534 1536 1539 1539 1541 1544 1546 1548 1549 1550 1551 1552 1553 1556 1556 1557 1557 1557 1558 1558 1560 1560 1561 1564 1563 1563 1561 1557 1556 1556 1556 1555 1555 1555
1512 1513 1514 1518 1522 1526 1529 1532 1534 1536 1537 1538 1539 1540 1543 1546 1548 1550 1550 1551 1552 1554 1555 1556 1556 1557 1558 1559 1559 1560 1560 1561 1562 1562 1563 1561 1556 1555 1555 1555 1555 1554 1554
1514 1514 1515 1518 1522 1525 1529 1532 1534 1537 1538 1539 1540 1542 1543 1545 1548 1550 1550 1551 1552 1554 1555 1556 1556 1556 1557 1558 1559 1560 1560 1561 1563 1563 1563 1559 1555 1555 1555 1554 1555 1554 1554
1514 1516 1516 1518 1521 1523 1526 1530 1533 1535 1538 1539 1540 1542 1543 1544 1546 1549 1550 1551 1552 1554 1554 1555 1556 1556 1557 1558 1559 1560 1560 1561 1563 1562 1563 1557 1555 1554 1554 1554 1554 1553 1553
1514 1514 1515 1516 1518 1521 1524 1526 1530 1534 1536 1538 1540 1542 1543 1543 1545 1547 1549 1549 1551 1552 1553 1554 1555 1556 1556 1557 1558 1559 1561 1563 1561 1562 1561 1556 1555 1554 1553 1552 1552 1552 1552
1511 1511 1511 1513 1515 1517 1521 1524 1526 1529 1532 1535 1537 1539 1542 1542 1544 1545 1547 1548 1548 1550 1551 1552 1553 1554 1556 1556 1557 1558 1560 1561 1561 1561 1558 1554 1554 1553 1553 1552 1551 1551 1550
1508 1507 1508 1509 1511 1513 1517 1521 1523 1525 1527 1529 1532 1535 1539 1539 1541 1542 1543 1545 1545 1547 1548 1549 1551 1552 1554 1555 1556 1557 1558 1557 1559 1560 1554 1553 1553 1553 1552 1551 1551 1550 1550
1507 1506 1506 1508 1509 1509 1512 1514 1521 1525 1525 1526 1525 1528 1531 1534 1537 1538 1539 1543 1544 1543 1544 1546 1548 1551 1553 1554 1554 1555 1555 1558 1559 1559 1552 1551 1552 1551 1551 1551 1550 1550 1549
1504 1505 1505 1505 1506 1507 1510 1512 1515 1518 1521 1522 1520 1523 1525 1528 1530 1533 1534 1538 1543 1542 1542 1542 1544 1546 1548 1550 1550 1551 1553 1555 1556 1558 1555 1551 1550 1550 1550 1550 1550 1549 1549
1500 1501 1503 1503 1503 1505 1506 1509 1511 1513 1517 1517 1518 1519 1521 1524 1527 1531 1530 1533 1538 1540 1541 1541 1540 1539 1542 1545 1547 1548 1549 1551 1551 1554 1555 1551 1551 1550 1549 1549 1548 1549 1548
1495 1496 1498 1499 1501 1503 1506 1506 1508 1513 1514 1514 1514 1511 1517 1520 1522 1523 1523 1525 1528 1530 1534 1539 1539 1539 1537 1540 1542 1544 1546 1547 1549 1549 1552 1551 1548 1550 1549 1548 1547 1547 1547
1492 1491 1494 1496 1497 1498 1500 1504 1504 1507 1509 1510 1510 1507 1507 1511 1518 1518 1519 1521 1523 1521 1525 1528 1532 1537 1538 1533 1538 1539 1543 1544 1545 1545 1548 1550 1546 1547 1547 1547 1546 1545 1545
1492 1491 1492 1493 1494 1495 1496 1497 1499 1501 1502 1504 1505 1504 1502 1503 1508 1510 1515 1515 1516 1517 1518 1522 1518 1523 1533 1532 1532 1536 1535 1538 1541 1544 1545 1545 1545 1547 1548 1544 1544 1544 1544
1493 1491 1491 1492 1493 1494 1494 1494 1495 1494 1496 1497 1497 1497 1498 1497 1500 1503 1506 1510 1511 1511 1512 1513 1513 1514 1519 1521 1522 1530 1535 1533 1533 1538 1541 1542 1541 1543 1544 1544 1543 1543 1543
1494 1492 1491 1491 1491 1492 1491 1492 1492 1491 1491 1491 1491 1491 1489 1489 1491 1492 1496 1501 1502 1503 1504 1505 1507 1509 1512 1512 1512 1516 1527 1530 1528 1530 1535 1538 1537 1536 1539 1541 1544 1544 1541
1493 1492 1492 1490 1489 1488 1488 1488 1487 1487 1486 1486 1486 1484 1483 1482 1483 1484 1486 1488 1490 1493 1493 1495 1497 1500 1505 1505 1501 1499 1510 1521 1518 1522 1527 1532 1533 1531 1533 1536 1540 1541 1541
1493 1492 1491 1489 1489 1487 1486 1485 1484 1483 1482 1482 1480 1479 1476 1476 1475 1474 1474 1475 1478 1478 1476 1482 1485 1489 1491 1491 1494 1496 1500 1500 1503 1506 1515 1522 1523 1523 1524 1526 1533 1537 1538
1493 1491 1490 1489 1486 1484 1483 1481 1479 1477 1476 1476 1474 1472 1470 1468 1465 1464 1464 1465 1466 1465 1465 1466 1471 1474 1479 1473 1480 1480 1489 1493 1490 1496 1501 1510 1514 1517 1520 1520 1523 1528 1531
1493 1490 1489 1487 1485 1483 1481 1479 1476 1474 1474 1470 1469 1467 1464 1463 1460 1458 1456 1453 1456 1451 1453 1454 1455 1456 1456 1455 1455 1454 1469 1481 1482 1483 1484 1495 1504 1512 1514 1519 1515 1519 1522
1492 1490 1487 1485 1482 1480 1478 1477 1473 1471 1469 1467 1465 1462 1460 1456 1454 1451 1450 1449 1447 1442 1440 1441 1443 1441 1442 1443 1431 1449 1455 1460 1469 1471 1477 1480 1479 1491 1507 1518 1514 1513 1518